Change the Weather History Date:

Wednesday, November 7, 2012

  Actual Average (KCBG) Record (KCBG)
Temperature  
Mean Temperature 39 °F -  
Max Temperature 43 °F 43 °F 67 °F (1949)
Min Temperature 35 °F 25 °F -10 °F (1991)
Degree Days  
Heating Degree Days 26    
Moisture  
Dew Point 34 °F    
Average Humidity 83    
Maximum Humidity 91    
Minimum Humidity 68    
Precipitation  
Precipitation 0.00 in - - ()
Sea Level Pressure  
Sea Level Pressure 30.05 in    
Wind  
Wind Speed 2 mph (South)    
Max Wind Speed 8 mph    
Max Gust Speed -    
Visibility 10 miles    
Events      
Averages and records for this station are not official NWS values.
T = Trace of Precipitation, MM = Missing Value Source: NWS Daily Summary

Daily Weather History Graph

Daily Weather History Graph

Search for Another Location

Airport or City:

Trip Planner

Search our weather history database for the weather conditions in past years. The results will help you decide how hot, cold, wet, or windy it might be!

Date:

Astronomy

Nov. 07, 2012 Rise Set
Actual Time 7:00 AM CST 4:49 PM CST
Civil Twilight 6:29 AM CST 5:21 PM CST
Nautical Twilight 5:53 AM CST 5:56 PM CST
Astronomical Twilight 5:19 AM CST 6:31 PM CST
Moon No Moon Rise 1:17 PM CST (11/7)
Length of Visible Light 10h 51m
Length of Day
9h 48m
Last Quarter, 43% of the Moon is Illuminated
Nov 7
Last Quarter
Nov 13
New
Nov 20
First Quarter
Nov 28
Full
Dec 6
Last Quarter

Hourly Weather History & Observations

Time (CST) Temp. Windchill Dew Point Humidity Pressure Visibility Wind Dir Wind Speed Gust Speed Precip Events Conditions
12:15 AM 36.5 °F - 32.9 °F 87% 29.97 in 10.0 mi Calm Calm - N/A   Overcast
12:34 AM 36.5 °F - 32.9 °F 87% 29.98 in 10.0 mi Calm Calm - N/A   Overcast
12:54 AM 36.5 °F - 32.9 °F 87% 29.98 in 10.0 mi Calm Calm - N/A   Overcast
1:14 AM 36.5 °F - 33.1 °F 87% 29.98 in 10.0 mi Calm Calm - N/A   Overcast
1:35 AM 36.5 °F 32.7 °F 33.3 °F 88% 29.99 in 10.0 mi NNW 4.6 mph - N/A   Overcast
1:54 AM 36.5 °F 33.9 °F 33.3 °F 88% 30.00 in 10.0 mi NW 3.5 mph - N/A   Overcast
2:14 AM 36.5 °F 33.9 °F 33.3 °F 88% 30.00 in 10.0 mi NNW 3.5 mph - N/A   Overcast
2:54 AM 36.5 °F 32.7 °F 33.4 °F 89% 30.01 in 10.0 mi NW 4.6 mph - N/A   Overcast
3:14 AM 36.1 °F 32.3 °F 33.4 °F 90% 30.02 in 10.0 mi WNW 4.6 mph - N/A   Overcast
3:34 AM 36.5 °F 33.9 °F 33.8 °F 90% 30.02 in 10.0 mi WNW 3.5 mph - N/A   Overcast
3:54 AM 36.5 °F 33.9 °F 34.0 °F 91% 30.02 in 10.0 mi WNW 3.5 mph - N/A   Overcast
4:15 AM 36.5 °F 32.7 °F 33.8 °F 90% 30.03 in 10.0 mi WNW 4.6 mph - N/A   Overcast
4:34 AM 36.7 °F - 33.8 °F 89% 30.03 in 10.0 mi Calm Calm - N/A   Overcast
4:55 AM 36.7 °F 32.9 °F 33.4 °F 88% 30.04 in 10.0 mi NW 4.6 mph - N/A   Overcast
5:14 AM 36.7 °F 34.1 °F 33.4 °F 88% 30.04 in 10.0 mi WNW 3.5 mph - N/A   Overcast
5:34 AM 36.5 °F 33.9 °F 33.3 °F 88% 30.05 in 10.0 mi WNW 3.5 mph - N/A   Overcast
5:55 AM 36.1 °F 33.5 °F 32.9 °F 88% 30.06 in 10.0 mi WNW 3.5 mph - N/A   Overcast
6:14 AM 36.0 °F - 32.9 °F 89% 30.06 in 10.0 mi Calm Calm - N/A   Overcast
6:34 AM 35.8 °F - 32.9 °F 89% 30.06 in 10.0 mi Calm Calm - N/A   Overcast
6:55 AM 35.6 °F - 32.9 °F 90% 30.06 in 10.0 mi Calm Calm - N/A   Overcast
7:14 AM 35.8 °F - 33.3 °F 91% 30.07 in 10.0 mi Calm Calm - N/A   Overcast
7:34 AM 36.0 °F - 33.6 °F 91% 30.08 in 10.0 mi Calm Calm - N/A   Overcast
7:55 AM 36.5 °F - 33.8 °F 90% 30.08 in 10.0 mi Calm Calm - N/A   Overcast
8:14 AM 36.7 °F - 34.2 °F 91% 30.08 in 10.0 mi Calm Calm - N/A   Overcast
8:34 AM 37.2 °F - 34.3 °F 89% 30.09 in 10.0 mi Calm Calm - N/A   Overcast
8:54 AM 37.6 °F - 34.7 °F 89% 30.09 in 10.0 mi Calm Calm - N/A   Overcast
9:14 AM 37.8 °F - 34.7 °F 89% 30.09 in 10.0 mi Calm Calm - N/A   Overcast
9:34 AM 38.1 °F - 34.2 °F 86% 30.10 in 10.0 mi Calm Calm - N/A   Overcast
9:54 AM 38.3 °F - 34.2 °F 85% 30.09 in 10.0 mi Calm Calm - N/A   Overcast
10:14 AM 38.5 °F - 33.8 °F 83% 30.10 in 10.0 mi Calm Calm - N/A   Overcast
10:34 AM 39.2 °F - 34.2 °F 82% 30.10 in 10.0 mi Calm Calm - N/A   Overcast
10:55 AM 39.2 °F - 34.2 °F 82% 30.10 in 10.0 mi Calm Calm - N/A   Overcast
11:14 AM 39.6 °F - 34.3 °F 82% 30.10 in 10.0 mi Calm Calm - N/A   Overcast
11:34 AM 39.7 °F - 34.3 °F 81% 30.09 in 10.0 mi Calm Calm - N/A   Overcast
11:54 AM 40.1 °F - 34.5 °F 80% 30.09 in 10.0 mi Calm Calm - N/A   Overcast
12:14 PM 40.5 °F - 34.3 °F 79% 30.07 in 10.0 mi Calm Calm - N/A   Overcast
12:34 PM 41.0 °F - 34.7 °F 78% 30.07 in 10.0 mi Calm Calm - N/A   Overcast
12:54 PM 41.4 °F - 34.7 °F 77% 30.07 in 10.0 mi Calm Calm - N/A   Overcast
1:14 PM 41.9 °F 38.2 °F 34.5 °F 75% 30.07 in 10.0 mi SW 5.8 mph - N/A   Overcast
1:35 PM 42.4 °F 40.7 °F 34.5 °F 74% 30.06 in 10.0 mi WSW 3.5 mph - N/A   Overcast
1:54 PM 42.4 °F - 34.0 °F 72% 30.06 in 10.0 mi Calm Calm - N/A   Overcast
2:14 PM 42.4 °F - 33.4 °F 70% 30.06 in 10.0 mi Calm Calm - N/A   Overcast
2:35 PM 42.8 °F - 33.8 °F 70% 30.06 in 10.0 mi Calm Calm - N/A   Overcast
2:54 PM 42.8 °F - 33.6 °F 70% 30.06 in 10.0 mi Calm Calm - N/A   Overcast
3:14 PM 43.0 °F 41.3 °F 32.9 °F 68% 30.06 in 10.0 mi South 3.5 mph - N/A   Overcast
3:40 PM 42.8 °F 40.1 °F 33.1 °F 69% 30.06 in 10.0 mi South 4.6 mph - N/A   Overcast
3:54 PM 42.3 °F 39.4 °F 34.0 °F 72% 30.06 in 10.0 mi SSE 4.6 mph - N/A   Overcast
4:14 PM 42.1 °F 39.2 °F 34.0 °F 73% 30.06 in 10.0 mi SSE 4.6 mph - N/A   Overcast
4:34 PM 41.9 °F 40.0 °F 34.0 °F 73% 30.06 in 10.0 mi SE 3.5 mph - N/A   Overcast
4:54 PM 41.2 °F 38.2 °F 34.0 °F 76% 30.06 in 10.0 mi SE 4.6 mph - N/A   Overcast
5:14 PM 40.8 °F 38.8 °F 34.0 °F 77% 30.06 in 10.0 mi SE 3.5 mph - N/A   Overcast
5:34 PM 40.6 °F 37.5 °F 33.6 °F 76% 30.06 in 10.0 mi SE 4.6 mph - N/A   Overcast
5:54 PM 40.5 °F - 33.3 °F 75% 30.06 in 10.0 mi Calm Calm - N/A   Overcast
6:14 PM 40.3 °F 37.1 °F 33.4 °F 77% 30.06 in 10.0 mi SE 4.6 mph - N/A   Overcast
6:34 PM 40.1 °F 36.9 °F 33.8 °F 78% 30.06 in 10.0 mi SE 4.6 mph - N/A   Overcast
6:54 PM 40.1 °F 36.1 °F 34.0 °F 79% 30.06 in 10.0 mi SSE 5.8 mph - N/A   Overcast
7:14 PM 40.1 °F 36.1 °F 34.0 °F 79% 30.06 in 10.0 mi SSE 5.8 mph - N/A   Overcast
7:34 PM 39.7 °F 36.5 °F 33.8 °F 79% 30.05 in 10.0 mi SSE 4.6 mph - N/A   Overcast
7:54 PM 39.2 °F 35.0 °F 33.8 °F 81% 30.05 in 10.0 mi SSE 5.8 mph - N/A   Overcast
8:15 PM 38.7 °F 34.3 °F 33.4 °F 81% 30.05 in 10.0 mi SSE 5.8 mph - N/A   Overcast
8:34 PM 37.9 °F 33.5 °F 33.3 °F 83% 30.05 in 10.0 mi SSE 5.8 mph - N/A   Scattered Clouds
8:54 PM 37.4 °F 32.8 °F 32.9 °F 84% 30.05 in 10.0 mi SSE 5.8 mph - N/A   Scattered Clouds
9:15 PM 36.9 °F 33.1 °F 32.9 °F 86% 30.05 in 10.0 mi South 4.6 mph - N/A   Scattered Clouds
9:34 PM 36.7 °F 32.9 °F 32.9 °F 86% 30.04 in 10.0 mi South 4.6 mph - N/A   Clear
9:55 PM 36.5 °F 31.8 °F 32.9 °F 87% 30.04 in 10.0 mi SSE 5.8 mph - N/A   Clear
10:14 PM 36.3 °F 32.5 °F 32.9 °F 87% 30.04 in 10.0 mi SSE 4.6 mph - N/A   Clear
10:35 PM 36.0 °F 32.1 °F 32.5 °F 87% 30.05 in 10.0 mi South 4.6 mph - N/A   Clear
10:54 PM 36.9 °F 34.3 °F 33.3 °F 87% 30.06 in 10.0 mi South 3.5 mph - N/A   Clear
11:14 PM 36.5 °F 32.7 °F 33.3 °F 88% 30.05 in 10.0 mi SSE 4.6 mph - N/A   Scattered Clouds
11:35 PM 36.9 °F 31.4 °F 33.4 °F 87% 30.04 in 10.0 mi SSE 6.9 mph - N/A   Mostly Cloudy
11:54 PM 37.4 °F 31.4 °F 33.8 °F 87% 30.03 in 10.0 mi SSE 8.1 mph - N/A   Mostly Cloudy